When you browse on this site, cookies collect data to enhance your experience and personalize the content and advertising you see.
Visit our Privacy Policy to learn more. By continuing to use the site, you agree to this use of cookies and data.
  • In Lithuania
  • List of Countries
  • For 7 days
  • Water Temperature
  • Weather Map
  • Weather Widgets
  • user-avatar
    Login

    Hourly Weather Morpeth

    Today, 18 February, Tuesday

    Time Temperature Precipitation Wind Pressure Humidity
    00:00 +1°C° 0 mm 11 mps 748 mmHg 79%
    01:00 +1°C° 0 mm 11 mps 749 mmHg 80%
    02:00 +1°C° 0 mm 10 mps 749 mmHg 80%
    03:00 +1°C° 0 mm 10 mps 749 mmHg 81%
    04:00 +1°C° 0 mm 10 mps 749 mmHg 80%
    05:00 +1°C° 0 mm 10 mps 750 mmHg 79%
    06:00 +1°C° 0 mm 9 mps 750 mmHg 79%
    07:00 +1°C° 0 mm 10 mps 750 mmHg 81%
    08:00 +1°C° 0 mm 10 mps 750 mmHg 82%
    09:00 +1°C° 0 mm 10 mps 750 mmHg 84%
    10:00 +2°C° 0 mm 9 mps 750 mmHg 80%
    11:00 +3°C° 0 mm 9 mps 749 mmHg 76%
    12:00 +3°C° 0 mm 9 mps 749 mmHg 72%
    13:00 +3°C° 0.6 mm 9 mps 749 mmHg 76%
    14:00 +2°C° 0.6 mm 9 mps 748 mmHg 80%
    15:00 +2°C° 0.6 mm 9 mps 748 mmHg 84%
    16:00 +1°C° 0.1 mm 9 mps 748 mmHg 84%
    17:00 +1°C° 0.1 mm 9 mps 748 mmHg 84%
    18:00 0°C° 0.1 mm 9 mps 748 mmHg 85%
    19:00 0°C° 0 mm 9 mps 748 mmHg 81%
    20:00 0°C° 0 mm 9 mps 749 mmHg 77%
    21:00 0°C° 0 mm 9 mps 749 mmHg 74%
    22:00 -1°C° 0 mm 9 mps 750 mmHg 74%
    23:00 -1°C° 0 mm 9 mps 750 mmHg 74%

    Tomorrow, 19 February, Wednesday

    Time Temperature Precipitation Wind Pressure Humidity
    00:00 -1°C° 0 mm 9 mps 750 mmHg 74%
    01:00 -1°C° 0 mm 9 mps 751 mmHg 74%
    02:00 -1°C° 0 mm 9 mps 751 mmHg 74%
    03:00 -1°C° 0 mm 9 mps 752 mmHg 75%
    04:00 -1°C° 0 mm 9 mps 752 mmHg 76%
    05:00 -1°C° 0 mm 8 mps 753 mmHg 77%
    06:00 -1°C° 0 mm 8 mps 753 mmHg 78%
    07:00 -1°C° 0 mm 8 mps 753 mmHg 78%
    08:00 0°C° 0 mm 7 mps 754 mmHg 78%
    09:00 0°C° 0 mm 7 mps 754 mmHg 78%
    10:00 +2°C° 0 mm 7 mps 754 mmHg 75%
    11:00 +3°C° 0 mm 7 mps 753 mmHg 73%
    12:00 +3°C° 0 mm 7 mps 753 mmHg 70%
    13:00 +3°C° 0 mm 6 mps 752 mmHg 76%
    14:00 +3°C° 0 mm 6 mps 751 mmHg 81%
    15:00 +3°C° 0 mm 6 mps 750 mmHg 86%
    16:00 +4°C° 0.2 mm 6 mps 749 mmHg 87%
    17:00 +4°C° 0.2 mm 7 mps 747 mmHg 88%
    18:00 +5°C° 0.2 mm 7 mps 746 mmHg 89%
    19:00 +6°C° 0.4 mm 7 mps 746 mmHg 88%
    20:00 +6°C° 0.4 mm 7 mps 745 mmHg 88%
    21:00 +8°C° 0.4 mm 7 mps 745 mmHg 88%
    22:00 +8°C° 0.1 mm 7 mps 745 mmHg 89%
    23:00 +8°C° 0.1 mm 6 mps 744 mmHg 89%

    Day after tomorrow, 20 February, Thursday

    Time Temperature Precipitation Wind Pressure Humidity
    00:00 +8°C° 0.1 mm 6 mps 744 mmHg 89%
    01:00 +8°C° 0.1 mm 6 mps 744 mmHg 90%
    02:00 +8°C° 0.1 mm 5 mps 743 mmHg 90%
    03:00 +7°C° 0.1 mm 5 mps 742 mmHg 90%
    04:00 +8°C° 0.5 mm 6 mps 741 mmHg 89%
    05:00 +7°C° 0.5 mm 8 mps 741 mmHg 88%
    06:00 +7°C° 0.5 mm 9 mps 740 mmHg 86%
    07:00 +7°C° 0.5 mm 9 mps 739 mmHg 86%
    08:00 +6°C° 0.5 mm 9 mps 739 mmHg 87%
    09:00 +6°C° 0.5 mm 9 mps 738 mmHg 87%
    10:00 +5°C° 0.6 mm 9 mps 739 mmHg 85%
    11:00 +2°C° 0.6 mm 8 mps 740 mmHg 82%
    12:00 +1°C° 0.6 mm 8 mps 741 mmHg 80%
    13:00 +1°C° 0 mm 9 mps 742 mmHg 74%
    14:00 +2°C° 0 mm 9 mps 743 mmHg 69%
    15:00 +2°C° 0 mm 9 mps 743 mmHg 63%
    16:00 +1°C° 0 mm 9 mps 744 mmHg 66%
    17:00 0°C° 0 mm 9 mps 745 mmHg 68%
    18:00 -1°C° 0 mm 9 mps 746 mmHg 71%
    19:00 -1°C° 0 mm 9 mps 746 mmHg 75%
    20:00 -2°C° 0 mm 10 mps 747 mmHg 79%
    21:00 -2°C° 0 mm 11 mps 748 mmHg 83%
    22:00 -2°C° 0 mm 11 mps 749 mmHg 84%
    23:00 -1°C° 0 mm 11 mps 750 mmHg 85%

    21 February, Friday

    Time Temperature Precipitation Wind Pressure Humidity
    00:00 0°C° 0 mm 10 mps 751 mmHg 86%
    01:00 0°C° 0.1 mm 10 mps 751 mmHg 87%
    02:00 0°C° 0.1 mm 9 mps 752 mmHg 89%
    03:00 0°C° 0.1 mm 9 mps 753 mmHg 91%
    04:00 0°C° 0 mm 9 mps 753 mmHg 88%
    05:00 +1°C° 0 mm 9 mps 753 mmHg 85%
    06:00 +1°C° 0 mm 9 mps 753 mmHg 81%
    13:00 +6°C° 0.1 mm 11 mps 751 mmHg 80%
    14:00 +6°C° 0.1 mm 11 mps 751 mmHg 80%
    15:00 +6°C° 0.1 mm 11 mps 750 mmHg 80%
    16:00 +5°C° 0.2 mm 12 mps 749 mmHg 80%
    17:00 +7°C° 0.2 mm 13 mps 749 mmHg 80%
    18:00 +7°C° 0.2 mm 13 mps 748 mmHg 80%
    19:00 +7°C° 0.2 mm 13 mps 748 mmHg 80%
    20:00 +8°C° 0.2 mm 13 mps 748 mmHg 81%
    21:00 +8°C° 0.2 mm 14 mps 747 mmHg 81%
    22:00 +8°C° 0.2 mm 13 mps 748 mmHg 81%
    23:00 +8°C° 0.2 mm 12 mps 748 mmHg 81%

    22 February, Saturday

    Time Temperature Precipitation Wind Pressure Humidity
    00:00 +8°C° 0.2 mm 11 mps 748 mmHg 81%
    01:00 +7°C° 0.1 mm 11 mps 748 mmHg 80%
    02:00 +7°C° 0.1 mm 11 mps 748 mmHg 79%
    03:00 +6°C° 0.1 mm 11 mps 748 mmHg 78%
    04:00 +6°C° 0.1 mm 11 mps 748 mmHg 78%
    05:00 +4°C° 0.1 mm 11 mps 748 mmHg 78%
    06:00 +4°C° 0.1 mm 12 mps 748 mmHg 78%
    07:00 +4°C° 0.3 mm 12 mps 748 mmHg 78%
    08:00 +4°C° 0.3 mm 12 mps 748 mmHg 78%
    09:00 +4°C° 0.3 mm 12 mps 748 mmHg 77%
    10:00 +4°C° 0.2 mm 12 mps 749 mmHg 77%
    11:00 +4°C° 0.2 mm 13 mps 749 mmHg 76%
    12:00 +4°C° 0.2 mm 13 mps 749 mmHg 76%
    13:00 +4°C° 0.3 mm 12 mps 750 mmHg 77%
    14:00 +4°C° 0.3 mm 12 mps 750 mmHg 77%
    15:00 +3°C° 0.3 mm 12 mps 750 mmHg 78%
    16:00 +3°C° 0.2 mm 11 mps 750 mmHg 80%
    17:00 +2°C° 0.2 mm 11 mps 751 mmHg 82%
    18:00 +2°C° 0.2 mm 10 mps 751 mmHg 84%
    19:00 +1°C° 0.1 mm 11 mps 752 mmHg 84%
    20:00 +1°C° 0.1 mm 11 mps 752 mmHg 84%
    21:00 +1°C° 0.1 mm 11 mps 753 mmHg 84%
    22:00 +1°C° 0.1 mm 10 mps 753 mmHg 82%
    23:00 +1°C° 0.1 mm 10 mps 754 mmHg 81%

    23 February, Sunday

    Time Temperature Precipitation Wind Pressure Humidity
    00:00 +1°C° 0.1 mm 10 mps 754 mmHg 79%
    01:00 +1°C° 0 mm 10 mps 754 mmHg 80%
    02:00 +1°C° 0 mm 9 mps 754 mmHg 82%
    03:00 +1°C° 0 mm 9 mps 755 mmHg 83%
    04:00 +1°C° 0 mm 8 mps 755 mmHg 84%
    05:00 +2°C° 0 mm 7 mps 755 mmHg 86%
    06:00 +2°C° 0 mm 6 mps 755 mmHg 87%
    07:00 +2°C° 0 mm 5 mps 755 mmHg 86%
    08:00 +4°C° 0 mm 4 mps 754 mmHg 86%
    09:00 +4°C° 0 mm 4 mps 754 mmHg 85%
    10:00 +4°C° 0.2 mm 4 mps 754 mmHg 88%
    11:00 +4°C° 0.2 mm 4 mps 753 mmHg 91%
    12:00 +4°C° 0.2 mm 4 mps 752 mmHg 93%
    13:00 +6°C° 0.7 mm 4 mps 751 mmHg 93%
    14:00 +7°C° 0.7 mm 5 mps 751 mmHg 93%
    15:00 +8°C° 0.7 mm 6 mps 750 mmHg 93%
    16:00 +9°C° 0 mm 8 mps 749 mmHg 88%
    17:00 +9°C° 0 mm 11 mps 748 mmHg 83%
    18:00 +10°C° 0 mm 13 mps 748 mmHg 78%
    19:00 +10°C° 0 mm 13 mps 747 mmHg 77%
    20:00 +9°C° 0 mm 13 mps 747 mmHg 76%
    21:00 +9°C° 0 mm 13 mps 746 mmHg 75%
    22:00 +9°C° 0 mm 13 mps 746 mmHg 75%
    23:00 +9°C° 0 mm 13 mps 746 mmHg 76%
    Show more